Year,Month,Day,Hour,Minute,Value (Times are PST for temperature in C)
2015,12,06,00,00,6.80
2015,12,06,00,01,6.80
2015,12,06,00,02,6.80
2015,12,06,00,03,6.80
2015,12,06,00,04,6.80
2015,12,06,00,05,6.80
2015,12,06,00,06,6.80
2015,12,06,00,07,6.80
2015,12,06,00,08,6.80
2015,12,06,00,09,6.80
2015,12,06,00,10,6.80
2015,12,06,00,11,6.80
2015,12,06,00,12,6.80
2015,12,06,00,13,6.80
2015,12,06,00,14,6.80
2015,12,06,00,15,6.80
2015,12,06,00,16,6.80
2015,12,06,00,17,6.80
2015,12,06,00,18,6.80
2015,12,06,00,19,6.80
2015,12,06,00,20,6.80
2015,12,06,00,21,6.80
2015,12,06,00,22,6.80
2015,12,06,00,23,6.80
2015,12,06,00,24,6.80
2015,12,06,00,25,6.80
2015,12,06,00,26,6.80
2015,12,06,00,27,6.80
2015,12,06,00,28,6.80
2015,12,06,00,29,6.90
2015,12,06,00,30,6.90
2015,12,06,00,31,6.90
2015,12,06,00,32,6.90
2015,12,06,00,33,6.90
2015,12,06,00,34,6.90
2015,12,06,00,35,6.90
2015,12,06,00,36,6.90
2015,12,06,00,37,6.90
2015,12,06,00,38,6.90
2015,12,06,00,39,6.90
2015,12,06,00,40,6.90
2015,12,06,00,41,6.90
2015,12,06,00,42,6.80
2015,12,06,00,43,6.80
2015,12,06,00,44,6.90
2015,12,06,00,45,6.90
2015,12,06,00,46,6.90
2015,12,06,00,47,6.80
2015,12,06,00,48,6.90
2015,12,06,00,49,6.90
2015,12,06,00,50,6.90
2015,12,06,00,51,6.90
2015,12,06,00,52,6.90
2015,12,06,00,53,6.80
2015,12,06,00,54,6.90
2015,12,06,00,55,6.90
2015,12,06,00,56,6.90
2015,12,06,00,57,6.90
2015,12,06,00,58,6.90
2015,12,06,00,59,6.90
2015,12,06,01,00,6.90
2015,12,06,01,01,6.90
2015,12,06,01,02,6.90
2015,12,06,01,03,6.90
2015,12,06,01,04,6.90
2015,12,06,01,05,6.90
2015,12,06,01,06,6.90
2015,12,06,01,07,6.90
2015,12,06,01,08,6.90
2015,12,06,01,09,6.90
2015,12,06,01,10,6.90
2015,12,06,01,11,6.90
2015,12,06,01,12,6.90
2015,12,06,01,13,6.90
2015,12,06,01,14,6.90
2015,12,06,01,15,6.90
2015,12,06,01,16,6.80
2015,12,06,01,17,6.80
2015,12,06,01,18,6.80
2015,12,06,01,19,6.80
2015,12,06,01,20,6.90
2015,12,06,01,21,6.90
2015,12,06,01,22,6.90
2015,12,06,01,23,6.90
2015,12,06,01,24,6.90
2015,12,06,01,25,6.90
2015,12,06,01,26,6.90
2015,12,06,01,27,6.90
2015,12,06,01,28,6.90
2015,12,06,01,29,6.90
2015,12,06,01,30,6.90
2015,12,06,01,31,6.90
2015,12,06,01,32,6.90
2015,12,06,01,33,6.90
2015,12,06,01,34,6.90
2015,12,06,01,35,6.90
2015,12,06,01,36,6.90
2015,12,06,01,37,6.90
2015,12,06,01,38,6.90
2015,12,06,01,39,6.90
2015,12,06,01,40,6.90
2015,12,06,01,41,6.90
2015,12,06,01,42,6.90
2015,12,06,01,43,6.90
2015,12,06,01,44,6.90
2015,12,06,01,45,6.90
2015,12,06,01,46,6.90
2015,12,06,01,47,6.90
2015,12,06,01,48,6.90
2015,12,06,01,49,6.90
2015,12,06,01,50,6.90
2015,12,06,01,51,6.90
2015,12,06,01,52,6.90
2015,12,06,01,53,6.90
2015,12,06,01,54,6.90
2015,12,06,01,55,6.90
2015,12,06,01,56,6.90
2015,12,06,01,57,6.90
2015,12,06,01,58,6.90
2015,12,06,01,59,6.90
2015,12,06,02,00,6.90
2015,12,06,02,01,6.90
2015,12,06,02,02,6.90
2015,12,06,02,03,6.90
2015,12,06,02,04,6.90
2015,12,06,02,05,6.90
2015,12,06,02,06,6.90
2015,12,06,02,07,6.90
2015,12,06,02,08,6.90
2015,12,06,02,09,6.90
2015,12,06,02,10,6.90
2015,12,06,02,11,6.90
2015,12,06,02,12,6.90
2015,12,06,02,13,6.90
2015,12,06,02,14,6.90
2015,12,06,02,15,6.90
2015,12,06,02,16,6.90
2015,12,06,02,17,6.90
2015,12,06,02,18,6.90
2015,12,06,02,19,6.90
2015,12,06,02,20,6.90
2015,12,06,02,21,6.90
2015,12,06,02,22,6.90
2015,12,06,02,23,6.90
2015,12,06,02,24,6.90
2015,12,06,02,25,6.90
2015,12,06,02,26,6.90
2015,12,06,02,27,6.90
2015,12,06,02,28,6.90
2015,12,06,02,29,6.90
2015,12,06,02,30,6.90
2015,12,06,02,31,6.90
2015,12,06,02,32,6.90
2015,12,06,02,33,6.90
2015,12,06,02,34,6.90
2015,12,06,02,35,6.90
2015,12,06,02,36,6.90
2015,12,06,02,37,6.90
2015,12,06,02,38,6.90
2015,12,06,02,39,6.90
2015,12,06,02,40,6.90
2015,12,06,02,41,6.90
2015,12,06,02,42,6.90
2015,12,06,02,43,6.90
2015,12,06,02,44,6.90
2015,12,06,02,45,6.90
2015,12,06,02,46,6.80
2015,12,06,02,47,6.80
2015,12,06,02,48,6.80
2015,12,06,02,49,6.80
2015,12,06,02,50,6.80
2015,12,06,02,51,6.80
2015,12,06,02,52,6.80
2015,12,06,02,53,6.80
2015,12,06,02,54,6.80
2015,12,06,02,55,6.80
2015,12,06,02,56,6.80
2015,12,06,02,57,6.80
2015,12,06,02,58,6.80
2015,12,06,02,59,6.80
2015,12,06,03,00,6.80
2015,12,06,03,01,6.80
2015,12,06,03,02,6.80
2015,12,06,03,03,6.80
2015,12,06,03,04,6.80
2015,12,06,03,05,6.80
2015,12,06,03,06,6.80
2015,12,06,03,07,6.80
2015,12,06,03,08,6.80
2015,12,06,03,09,6.80
2015,12,06,03,10,6.80
2015,12,06,03,11,6.80
2015,12,06,03,12,6.80
2015,12,06,03,13,6.80
2015,12,06,03,14,6.80
2015,12,06,03,15,6.80
2015,12,06,03,16,6.80
2015,12,06,03,17,6.80
2015,12,06,03,18,6.80
2015,12,06,03,19,6.80
2015,12,06,03,20,6.80
2015,12,06,03,21,6.80
2015,12,06,03,22,6.80
2015,12,06,03,23,6.80
2015,12,06,03,24,6.80
2015,12,06,03,25,6.80
2015,12,06,03,26,6.80
2015,12,06,03,27,6.80
2015,12,06,03,28,6.80
2015,12,06,03,29,6.80
2015,12,06,03,30,6.80
2015,12,06,03,31,6.80
2015,12,06,03,32,6.80
2015,12,06,03,33,6.80
2015,12,06,03,34,6.80
2015,12,06,03,35,6.80
2015,12,06,03,36,6.80
2015,12,06,03,37,6.80
2015,12,06,03,38,6.80
2015,12,06,03,39,6.80
2015,12,06,03,40,6.80
2015,12,06,03,41,6.80
2015,12,06,03,42,6.80
2015,12,06,03,43,6.80
2015,12,06,03,44,6.80
2015,12,06,03,45,6.80
2015,12,06,03,46,6.80
2015,12,06,03,47,6.80
2015,12,06,03,48,6.80
2015,12,06,03,49,6.80
2015,12,06,03,50,6.80
2015,12,06,03,51,6.80
2015,12,06,03,52,6.80
2015,12,06,03,53,6.80
2015,12,06,03,54,6.80
2015,12,06,03,55,6.80
2015,12,06,03,56,6.80
2015,12,06,03,57,6.80
2015,12,06,03,58,6.80
2015,12,06,03,59,6.80
2015,12,06,04,00,6.80
2015,12,06,04,01,6.80
2015,12,06,04,02,6.80
2015,12,06,04,03,6.80
2015,12,06,04,04,6.80
2015,12,06,04,05,6.80
2015,12,06,04,06,6.80
2015,12,06,04,07,6.80
2015,12,06,04,08,6.80
2015,12,06,04,09,6.80
2015,12,06,04,10,6.80
2015,12,06,04,11,6.80
2015,12,06,04,12,6.80
2015,12,06,04,13,6.80
2015,12,06,04,14,6.80
2015,12,06,04,15,6.80
2015,12,06,04,16,6.80
2015,12,06,04,17,6.80
2015,12,06,04,18,6.80
2015,12,06,04,19,6.80
2015,12,06,04,20,6.80
2015,12,06,04,21,6.80
2015,12,06,04,22,6.80
2015,12,06,04,23,6.80
2015,12,06,04,24,6.80
2015,12,06,04,25,6.80
2015,12,06,04,26,6.80
2015,12,06,04,27,6.80
2015,12,06,04,28,6.80
2015,12,06,04,29,6.80
2015,12,06,04,30,6.80
2015,12,06,04,31,6.80
2015,12,06,04,32,6.80
2015,12,06,04,33,6.80
2015,12,06,04,34,6.80
2015,12,06,04,35,6.80
2015,12,06,04,36,6.80
2015,12,06,04,37,6.80
2015,12,06,04,38,6.80
2015,12,06,04,39,6.80
2015,12,06,04,40,6.80
2015,12,06,04,41,6.80
2015,12,06,04,42,6.80
2015,12,06,04,43,6.80
2015,12,06,04,44,6.80
2015,12,06,04,45,6.80
2015,12,06,04,46,6.80
2015,12,06,04,47,6.80
2015,12,06,04,48,6.80
2015,12,06,04,49,6.80
2015,12,06,04,50,6.80
2015,12,06,04,51,6.80
2015,12,06,04,52,6.80
2015,12,06,04,53,6.80
2015,12,06,04,54,6.80
2015,12,06,04,55,6.80
2015,12,06,04,56,6.80
2015,12,06,04,57,6.80
2015,12,06,04,58,6.80
2015,12,06,04,59,6.80
2015,12,06,05,00,6.80
2015,12,06,05,01,6.80
2015,12,06,05,02,6.80
2015,12,06,05,03,6.80
2015,12,06,05,04,6.80
2015,12,06,05,05,6.80
2015,12,06,05,06,6.80
2015,12,06,05,07,6.80
2015,12,06,05,08,6.80
2015,12,06,05,09,6.80
2015,12,06,05,10,6.80
2015,12,06,05,11,6.80
2015,12,06,05,12,6.80
2015,12,06,05,13,6.80
2015,12,06,05,14,6.80
2015,12,06,05,15,6.80
2015,12,06,05,16,6.80
2015,12,06,05,17,6.80
2015,12,06,05,18,6.80
2015,12,06,05,19,6.80
2015,12,06,05,20,6.80
2015,12,06,05,21,6.80
2015,12,06,05,22,6.80
2015,12,06,05,23,6.80
2015,12,06,05,24,6.80
2015,12,06,05,25,6.80
2015,12,06,05,26,6.80
2015,12,06,05,27,6.80
2015,12,06,05,28,6.80
2015,12,06,05,29,6.80
2015,12,06,05,30,6.80
2015,12,06,05,31,6.80
2015,12,06,05,32,6.90
2015,12,06,05,33,6.90
2015,12,06,05,34,6.90
2015,12,06,05,35,6.90
2015,12,06,05,36,6.90
2015,12,06,05,37,6.90
2015,12,06,05,38,6.90
2015,12,06,05,39,6.90
2015,12,06,05,40,6.90
2015,12,06,05,41,6.90
2015,12,06,05,42,6.90
2015,12,06,05,43,6.90
2015,12,06,05,44,6.90
2015,12,06,05,45,6.90
2015,12,06,05,46,6.90
2015,12,06,05,47,6.90
2015,12,06,05,48,6.90
2015,12,06,05,49,6.90
2015,12,06,05,50,6.90
2015,12,06,05,51,6.90
2015,12,06,05,52,6.90
2015,12,06,05,53,6.90
2015,12,06,05,54,6.90
2015,12,06,05,55,6.90
2015,12,06,05,56,6.90
2015,12,06,05,57,6.90
2015,12,06,05,58,6.90
2015,12,06,05,59,6.90
2015,12,06,06,00,6.90
2015,12,06,06,01,6.90
2015,12,06,06,02,6.90
2015,12,06,06,03,6.90
2015,12,06,06,04,6.90
2015,12,06,06,05,6.90
2015,12,06,06,06,6.90
2015,12,06,06,07,6.90
2015,12,06,06,08,6.90
2015,12,06,06,09,6.90
2015,12,06,06,10,6.90
2015,12,06,06,11,6.90
2015,12,06,06,12,6.90
2015,12,06,06,13,6.90
2015,12,06,06,14,6.90
2015,12,06,06,15,6.90
2015,12,06,06,16,6.90
2015,12,06,06,17,6.90
2015,12,06,06,18,6.90
2015,12,06,06,19,6.90
2015,12,06,06,20,6.90
2015,12,06,06,21,6.90
2015,12,06,06,22,6.90
2015,12,06,06,23,6.90
2015,12,06,06,24,6.90
2015,12,06,06,25,6.90
2015,12,06,06,26,6.90
2015,12,06,06,27,6.90
2015,12,06,06,28,6.90
2015,12,06,06,29,7.00
2015,12,06,06,30,7.00
2015,12,06,06,31,7.00
2015,12,06,06,32,7.00
2015,12,06,06,33,7.00
2015,12,06,06,34,7.00
2015,12,06,06,35,7.00
2015,12,06,06,36,7.00
2015,12,06,06,37,7.00
2015,12,06,06,38,7.00
2015,12,06,06,39,7.00
2015,12,06,06,40,7.00
2015,12,06,06,41,7.00
2015,12,06,06,42,7.00
2015,12,06,06,43,7.00
2015,12,06,06,44,7.00
2015,12,06,06,45,7.00
2015,12,06,06,46,7.00
2015,12,06,06,47,7.00
2015,12,06,06,48,7.00
2015,12,06,06,49,7.00
2015,12,06,06,50,7.00
2015,12,06,06,51,7.00
2015,12,06,06,52,7.00
2015,12,06,06,53,7.00
2015,12,06,06,54,7.00
2015,12,06,06,55,7.10
2015,12,06,06,56,7.10
2015,12,06,06,57,7.10
2015,12,06,06,58,7.10
2015,12,06,06,59,7.10
2015,12,06,07,00,7.10
2015,12,06,07,01,7.10
2015,12,06,07,02,7.10
2015,12,06,07,03,7.10
2015,12,06,07,04,7.00
2015,12,06,07,05,7.00
2015,12,06,07,06,7.00
2015,12,06,07,07,7.00
2015,12,06,07,08,7.00
2015,12,06,07,09,7.10
2015,12,06,07,10,7.00
2015,12,06,07,11,7.10
2015,12,06,07,12,7.10
2015,12,06,07,13,7.10
2015,12,06,07,14,7.10
2015,12,06,07,15,7.10
2015,12,06,07,16,7.10
2015,12,06,07,17,7.10
2015,12,06,07,18,7.10
2015,12,06,07,19,7.10
2015,12,06,07,20,7.10
2015,12,06,07,21,7.10
2015,12,06,07,22,7.10
2015,12,06,07,23,7.10
2015,12,06,07,24,7.00
2015,12,06,07,25,7.10
2015,12,06,07,26,7.10
2015,12,06,07,27,7.10
2015,12,06,07,28,7.10
2015,12,06,07,29,7.10
2015,12,06,07,30,7.10
2015,12,06,07,31,7.10
2015,12,06,07,32,7.10
2015,12,06,07,33,7.10
2015,12,06,07,34,7.10
2015,12,06,07,35,7.00
2015,12,06,07,36,7.00
2015,12,06,07,37,7.00
2015,12,06,07,38,7.00
2015,12,06,07,39,7.00
2015,12,06,07,40,7.00
2015,12,06,07,41,7.00
2015,12,06,07,42,7.00
2015,12,06,07,43,7.00
2015,12,06,07,44,7.00
2015,12,06,07,45,7.00
2015,12,06,07,46,7.00
2015,12,06,07,47,7.00
2015,12,06,07,48,7.00
2015,12,06,07,49,7.00
2015,12,06,07,50,7.00
2015,12,06,07,51,7.00
2015,12,06,07,52,7.00
2015,12,06,07,53,7.00
2015,12,06,07,54,7.00
2015,12,06,07,55,7.00
2015,12,06,07,56,7.00
2015,12,06,07,57,7.00
2015,12,06,07,58,7.10
2015,12,06,07,59,7.10
2015,12,06,08,00,7.10
2015,12,06,08,01,7.10
2015,12,06,08,02,7.10
2015,12,06,08,03,7.10
2015,12,06,08,04,7.10
2015,12,06,08,05,7.00
2015,12,06,08,06,7.00
2015,12,06,08,07,7.00
2015,12,06,08,08,7.00
2015,12,06,08,09,7.00
2015,12,06,08,10,7.00
2015,12,06,08,11,7.00
2015,12,06,08,12,7.00
2015,12,06,08,13,7.00
2015,12,06,08,14,7.00
2015,12,06,08,15,7.00
2015,12,06,08,16,7.00
2015,12,06,08,17,7.00
2015,12,06,08,18,7.00
2015,12,06,08,19,7.00
2015,12,06,08,20,7.00
2015,12,06,08,21,7.00
2015,12,06,08,22,7.00
2015,12,06,08,23,7.10
2015,12,06,08,24,7.10
2015,12,06,08,25,7.10
2015,12,06,08,26,7.10
2015,12,06,08,27,7.10
2015,12,06,08,28,7.10
2015,12,06,08,29,7.10
2015,12,06,08,30,7.10
2015,12,06,08,31,7.10
2015,12,06,08,32,7.10
2015,12,06,08,33,7.10
2015,12,06,08,34,7.10
2015,12,06,08,35,7.10
2015,12,06,08,36,7.10
2015,12,06,08,37,7.10
2015,12,06,08,38,7.10
2015,12,06,08,39,7.10
2015,12,06,08,40,7.10
2015,12,06,08,41,7.20
2015,12,06,08,42,7.20
2015,12,06,08,43,7.10
2015,12,06,08,44,7.10
2015,12,06,08,45,7.20
2015,12,06,08,46,7.20
2015,12,06,08,47,7.20
2015,12,06,08,48,7.20
2015,12,06,08,49,7.20
2015,12,06,08,50,7.20
2015,12,06,08,51,7.30
2015,12,06,08,52,7.30
2015,12,06,08,53,7.40
2015,12,06,08,54,7.40
2015,12,06,08,55,7.40
2015,12,06,08,56,7.50
2015,12,06,08,57,7.50
2015,12,06,08,58,7.60
2015,12,06,08,59,7.60
2015,12,06,09,00,7.60
2015,12,06,09,01,7.70
2015,12,06,09,02,7.70
2015,12,06,09,03,7.70
2015,12,06,09,04,7.60
2015,12,06,09,05,7.60
2015,12,06,09,06,7.60
2015,12,06,09,07,7.60
2015,12,06,09,08,7.60
2015,12,06,09,09,7.50
2015,12,06,09,10,7.50
2015,12,06,09,11,7.50
2015,12,06,09,12,7.50
2015,12,06,09,13,7.50
2015,12,06,09,14,7.50
2015,12,06,09,15,7.50
2015,12,06,09,16,7.50
2015,12,06,09,17,7.50
2015,12,06,09,18,7.50
2015,12,06,09,19,7.50
2015,12,06,09,20,7.50
2015,12,06,09,21,7.60
2015,12,06,09,22,7.60
2015,12,06,09,23,7.60
2015,12,06,09,24,7.60
2015,12,06,09,25,7.60
2015,12,06,09,26,7.60
2015,12,06,09,27,7.70
2015,12,06,09,28,7.70
2015,12,06,09,29,7.70
2015,12,06,09,30,7.70
2015,12,06,09,31,7.80
2015,12,06,09,32,7.80
2015,12,06,09,33,7.80
2015,12,06,09,34,7.90
2015,12,06,09,35,8.00
2015,12,06,09,36,8.00
2015,12,06,09,37,8.10
2015,12,06,09,38,8.10
2015,12,06,09,39,8.20
2015,12,06,09,40,8.30
2015,12,06,09,41,8.30
2015,12,06,09,42,8.40
2015,12,06,09,43,8.40
2015,12,06,09,44,8.50
2015,12,06,09,45,8.60
2015,12,06,09,46,8.60
2015,12,06,09,47,8.60
2015,12,06,09,48,8.60
2015,12,06,09,49,8.70
2015,12,06,09,50,8.70
2015,12,06,09,51,8.70
2015,12,06,09,52,8.70
2015,12,06,09,53,8.80
2015,12,06,09,54,8.80
2015,12,06,09,55,8.80
2015,12,06,09,56,8.80
2015,12,06,09,57,8.80
2015,12,06,09,58,8.80
2015,12,06,09,59,8.80
2015,12,06,10,00,8.80
2015,12,06,10,01,8.90
2015,12,06,10,02,8.90
2015,12,06,10,03,8.90
2015,12,06,10,04,9.00
2015,12,06,10,05,9.10
2015,12,06,10,06,9.10
2015,12,06,10,07,9.10
2015,12,06,10,08,9.20
2015,12,06,10,09,9.20
2015,12,06,10,10,9.20
2015,12,06,10,11,9.20
2015,12,06,10,12,9.30
2015,12,06,10,13,9.30
2015,12,06,10,14,9.30
2015,12,06,10,15,9.30
2015,12,06,10,16,9.20
2015,12,06,10,17,9.20
2015,12,06,10,18,9.20
2015,12,06,10,19,9.30
2015,12,06,10,20,9.30
2015,12,06,10,21,9.30
2015,12,06,10,22,9.30
2015,12,06,10,23,9.40
2015,12,06,10,24,9.40
2015,12,06,10,25,9.50
2015,12,06,10,26,9.50
2015,12,06,10,27,9.60
2015,12,06,10,28,9.60
2015,12,06,10,29,9.60
2015,12,06,10,30,9.60
2015,12,06,10,31,9.60
2015,12,06,10,32,9.70
2015,12,06,10,33,9.70
2015,12,06,10,34,9.60
2015,12,06,10,35,9.50
2015,12,06,10,36,9.40
2015,12,06,10,37,9.30
2015,12,06,10,38,9.30
2015,12,06,10,39,9.30
2015,12,06,10,40,9.40
2015,12,06,10,41,9.40
2015,12,06,10,42,9.40
2015,12,06,10,43,9.40
2015,12,06,10,44,9.40
2015,12,06,10,45,9.40
2015,12,06,10,46,9.40
2015,12,06,10,47,9.50
2015,12,06,10,48,9.50
2015,12,06,10,49,9.60
2015,12,06,10,50,9.60
2015,12,06,10,51,9.60
2015,12,06,10,52,9.70
2015,12,06,10,53,9.90
2015,12,06,10,54,9.90
2015,12,06,10,55,10.00
2015,12,06,10,56,10.00
2015,12,06,10,57,10.10
2015,12,06,10,58,10.10
2015,12,06,10,59,10.10
2015,12,06,11,00,10.00
2015,12,06,11,01,9.90
2015,12,06,11,02,9.90
2015,12,06,11,03,9.80
2015,12,06,11,04,9.80
2015,12,06,11,05,9.70
2015,12,06,11,06,9.70
2015,12,06,11,07,9.60
2015,12,06,11,08,9.60
2015,12,06,11,09,9.60
2015,12,06,11,10,9.50
2015,12,06,11,11,9.50
2015,12,06,11,12,9.40
2015,12,06,11,13,9.40
2015,12,06,11,14,9.40
2015,12,06,11,15,9.50
2015,12,06,11,16,9.50
2015,12,06,11,17,9.50
2015,12,06,11,18,9.60
2015,12,06,11,19,9.70
2015,12,06,11,20,9.80
2015,12,06,11,21,9.80
2015,12,06,11,22,9.90
2015,12,06,11,23,9.90
2015,12,06,11,24,10.00
2015,12,06,11,25,10.10
2015,12,06,11,26,10.10
2015,12,06,11,27,10.10
2015,12,06,11,28,10.20
2015,12,06,11,29,10.20
2015,12,06,11,30,10.20
2015,12,06,11,31,10.20
2015,12,06,11,32,10.20
2015,12,06,11,33,10.20
2015,12,06,11,34,10.20
2015,12,06,11,35,10.10
2015,12,06,11,36,10.10
2015,12,06,11,37,10.10
2015,12,06,11,38,10.10
2015,12,06,11,39,10.10
2015,12,06,11,40,10.00
2015,12,06,11,41,10.00
2015,12,06,11,42,10.00
2015,12,06,11,43,9.90
2015,12,06,11,44,9.80
2015,12,06,11,45,9.80
2015,12,06,11,46,9.80
2015,12,06,11,47,9.90
2015,12,06,11,48,9.90
2015,12,06,11,49,9.80
2015,12,06,11,50,9.80
2015,12,06,11,51,9.80
2015,12,06,11,52,9.80
2015,12,06,11,53,9.80
2015,12,06,11,54,9.70
2015,12,06,11,55,9.70
2015,12,06,11,56,9.70
2015,12,06,11,57,9.80
2015,12,06,11,58,9.80
2015,12,06,11,59,9.80
2015,12,06,12,00,9.80
2015,12,06,12,01,9.70
2015,12,06,12,02,9.70
2015,12,06,12,03,9.70
2015,12,06,12,04,9.70
2015,12,06,12,05,9.70
2015,12,06,12,06,9.70
2015,12,06,12,07,9.70
2015,12,06,12,08,9.70
2015,12,06,12,09,9.70
2015,12,06,12,10,9.70
2015,12,06,12,11,9.70
2015,12,06,12,12,9.70
2015,12,06,12,13,9.60
2015,12,06,12,14,9.60
2015,12,06,12,15,9.50
2015,12,06,12,16,9.50
2015,12,06,12,17,9.50
2015,12,06,12,18,9.50
2015,12,06,12,19,9.60
2015,12,06,12,20,9.60
2015,12,06,12,21,9.60
2015,12,06,12,22,9.60
2015,12,06,12,23,9.70
2015,12,06,12,24,9.70
2015,12,06,12,25,9.80
2015,12,06,12,26,9.80
2015,12,06,12,27,9.80
2015,12,06,12,28,9.70
2015,12,06,12,29,9.70
2015,12,06,12,30,9.60
2015,12,06,12,31,9.50
2015,12,06,12,32,9.50
2015,12,06,12,33,9.40
2015,12,06,12,34,9.30
2015,12,06,12,35,9.20
2015,12,06,12,36,9.20
2015,12,06,12,37,9.10
2015,12,06,12,38,9.10
2015,12,06,12,39,9.00
2015,12,06,12,40,9.00
2015,12,06,12,41,8.90
2015,12,06,12,42,8.90
2015,12,06,12,43,8.90
2015,12,06,12,44,8.80
2015,12,06,12,45,8.80
2015,12,06,12,46,8.80
2015,12,06,12,47,8.80
2015,12,06,12,48,8.80
2015,12,06,12,49,8.80
2015,12,06,12,50,8.80
2015,12,06,12,51,8.80
2015,12,06,12,52,8.80
2015,12,06,12,53,8.80
2015,12,06,12,54,8.70
2015,12,06,12,55,8.70
2015,12,06,12,56,8.70
2015,12,06,12,57,8.70
2015,12,06,12,58,8.70
2015,12,06,12,59,8.70
2015,12,06,13,00,8.80
2015,12,06,13,01,8.80
2015,12,06,13,02,8.80
2015,12,06,13,03,8.80
2015,12,06,13,04,8.80
2015,12,06,13,05,8.80
2015,12,06,13,06,8.90
2015,12,06,13,07,8.90
2015,12,06,13,08,8.90
2015,12,06,13,09,8.80
2015,12,06,13,10,8.80
2015,12,06,13,11,8.90
2015,12,06,13,12,9.00
2015,12,06,13,13,9.10
2015,12,06,13,14,9.20
2015,12,06,13,15,9.20
2015,12,06,13,16,9.30
2015,12,06,13,17,9.40
2015,12,06,13,18,9.50
2015,12,06,13,19,9.50
2015,12,06,13,20,9.60
2015,12,06,13,21,9.50
2015,12,06,13,22,9.50
2015,12,06,13,23,9.50
2015,12,06,13,24,9.50
2015,12,06,13,25,9.40
2015,12,06,13,26,9.40
2015,12,06,13,27,9.40
2015,12,06,13,28,9.50
2015,12,06,13,29,9.60
2015,12,06,13,30,9.60
2015,12,06,13,31,9.60
2015,12,06,13,32,9.50
2015,12,06,13,33,9.50
2015,12,06,13,34,9.40
2015,12,06,13,35,9.40
2015,12,06,13,36,9.40
2015,12,06,13,37,9.30
2015,12,06,13,38,9.30
2015,12,06,13,39,9.30
2015,12,06,13,40,9.20
2015,12,06,13,41,9.20
2015,12,06,13,42,9.10
2015,12,06,13,43,9.10
2015,12,06,13,44,9.10
2015,12,06,13,45,9.00
2015,12,06,13,46,9.00
2015,12,06,13,47,8.90
2015,12,06,13,48,8.90
2015,12,06,13,49,8.90
2015,12,06,13,50,8.80
2015,12,06,13,51,8.80
2015,12,06,13,52,8.80
2015,12,06,13,53,8.70
2015,12,06,13,54,8.70
2015,12,06,13,55,8.70
2015,12,06,13,56,8.70
2015,12,06,13,57,8.70
2015,12,06,13,58,8.70
2015,12,06,13,59,8.70
2015,12,06,14,00,8.70
2015,12,06,14,01,8.70
2015,12,06,14,02,8.70
2015,12,06,14,03,8.70
2015,12,06,14,04,8.70
2015,12,06,14,05,8.70
2015,12,06,14,06,8.70
2015,12,06,14,07,8.70
2015,12,06,14,08,8.70
2015,12,06,14,09,8.70
2015,12,06,14,10,8.70
2015,12,06,14,11,8.70
2015,12,06,14,12,8.70
2015,12,06,14,13,8.70
2015,12,06,14,14,8.70
2015,12,06,14,15,8.60
2015,12,06,14,16,8.60
2015,12,06,14,17,8.60
2015,12,06,14,18,8.60
2015,12,06,14,19,8.60
2015,12,06,14,20,8.60
2015,12,06,14,21,8.60
2015,12,06,14,22,8.60
2015,12,06,14,23,8.60
2015,12,06,14,24,8.60
2015,12,06,14,25,8.60
2015,12,06,14,26,8.60
2015,12,06,14,27,8.60
2015,12,06,14,28,8.60
2015,12,06,14,29,8.60
2015,12,06,14,30,8.50
2015,12,06,14,31,8.50
2015,12,06,14,32,8.50
2015,12,06,14,33,8.50
2015,12,06,14,34,8.50
2015,12,06,14,35,8.50
2015,12,06,14,36,8.50
2015,12,06,14,37,8.40
2015,12,06,14,38,8.40
2015,12,06,14,39,8.40
2015,12,06,14,40,8.40
2015,12,06,14,41,8.40
2015,12,06,14,42,8.40
2015,12,06,14,43,8.40
2015,12,06,14,44,8.40
2015,12,06,14,45,8.40
2015,12,06,14,46,8.40
2015,12,06,14,47,8.40
2015,12,06,14,48,8.30
2015,12,06,14,49,8.30
2015,12,06,14,50,8.30
2015,12,06,14,51,8.30
2015,12,06,14,52,8.30
2015,12,06,14,53,8.30
2015,12,06,14,54,8.30
2015,12,06,14,55,8.30
2015,12,06,14,56,8.30
2015,12,06,14,57,8.20
2015,12,06,14,58,8.20
2015,12,06,14,59,8.20
2015,12,06,15,00,8.20
2015,12,06,15,01,8.20
2015,12,06,15,02,8.20
2015,12,06,15,03,8.10
2015,12,06,15,04,8.10
2015,12,06,15,05,8.10
2015,12,06,15,06,8.10
2015,12,06,15,07,8.10
2015,12,06,15,08,8.10
2015,12,06,15,09,8.10
2015,12,06,15,10,8.00
2015,12,06,15,11,8.00
2015,12,06,15,12,8.00
2015,12,06,15,13,8.00
2015,12,06,15,14,8.00
2015,12,06,15,15,8.00
2015,12,06,15,16,7.90
2015,12,06,15,17,7.90
2015,12,06,15,18,7.90
2015,12,06,15,19,7.90
2015,12,06,15,20,7.90
2015,12,06,15,21,7.90
2015,12,06,15,22,7.90
2015,12,06,15,23,7.90
2015,12,06,15,24,7.90
2015,12,06,15,25,7.90
2015,12,06,15,26,7.90
2015,12,06,15,27,7.90
2015,12,06,15,28,7.80
2015,12,06,15,29,7.80
2015,12,06,15,30,7.80
2015,12,06,15,31,7.80
2015,12,06,15,32,7.80
2015,12,06,15,33,7.80
2015,12,06,15,34,7.80
2015,12,06,15,35,7.80
2015,12,06,15,36,7.80
2015,12,06,15,37,7.80
2015,12,06,15,38,7.80
2015,12,06,15,39,7.80
2015,12,06,15,40,7.80
2015,12,06,15,41,7.80
2015,12,06,15,42,7.80
2015,12,06,15,43,7.80
2015,12,06,15,44,7.80
2015,12,06,15,45,7.80
2015,12,06,15,46,7.80
2015,12,06,15,47,7.80
2015,12,06,15,48,7.80
2015,12,06,15,49,7.80
2015,12,06,15,50,7.80
2015,12,06,15,51,7.80
2015,12,06,15,52,7.80
2015,12,06,15,53,7.80
2015,12,06,15,54,7.80
2015,12,06,15,55,7.80
2015,12,06,15,56,7.80
2015,12,06,15,57,7.80
2015,12,06,15,58,7.80
2015,12,06,15,59,7.70
2015,12,06,16,00,7.70
2015,12,06,16,01,7.70
2015,12,06,16,02,7.70
2015,12,06,16,03,7.70
2015,12,06,16,04,7.70
2015,12,06,16,05,7.70
2015,12,06,16,06,7.70
2015,12,06,16,07,7.70
2015,12,06,16,08,7.70
2015,12,06,16,09,7.70
2015,12,06,16,10,7.70
2015,12,06,16,11,7.70
2015,12,06,16,12,7.70
2015,12,06,16,13,7.70
2015,12,06,16,14,7.70
2015,12,06,16,15,7.70
2015,12,06,16,16,7.70
2015,12,06,16,17,7.70
2015,12,06,16,18,7.70
2015,12,06,16,19,7.70
2015,12,06,16,20,7.70
2015,12,06,16,21,7.70
2015,12,06,16,22,7.70
2015,12,06,16,23,7.60
2015,12,06,16,24,7.60
2015,12,06,16,25,7.60
2015,12,06,16,26,7.60
2015,12,06,16,27,7.60
2015,12,06,16,28,7.60
2015,12,06,16,29,7.60
2015,12,06,16,30,7.60
2015,12,06,16,31,7.60
2015,12,06,16,32,7.60
2015,12,06,16,33,7.60
2015,12,06,16,34,7.60
2015,12,06,16,35,7.60
2015,12,06,16,36,7.60
2015,12,06,16,37,7.60
2015,12,06,16,38,7.60
2015,12,06,16,39,7.60
2015,12,06,16,40,7.60
2015,12,06,16,41,7.60
2015,12,06,16,42,7.60
2015,12,06,16,43,7.60
2015,12,06,16,44,7.60
2015,12,06,16,45,7.60
2015,12,06,16,46,7.60
2015,12,06,16,47,7.60
2015,12,06,16,48,7.60
2015,12,06,16,49,7.50
2015,12,06,16,50,7.50
2015,12,06,16,51,7.50
2015,12,06,16,52,7.50
2015,12,06,16,53,7.50
2015,12,06,16,54,7.50
2015,12,06,16,55,7.40
2015,12,06,16,56,7.50
2015,12,06,16,57,7.40
2015,12,06,16,58,7.40
2015,12,06,16,59,7.40
2015,12,06,17,00,7.40
2015,12,06,17,01,7.40
2015,12,06,17,02,7.40
2015,12,06,17,03,7.40
2015,12,06,17,04,7.40
2015,12,06,17,05,7.40
2015,12,06,17,06,7.40
2015,12,06,17,07,7.40
2015,12,06,17,08,7.40
2015,12,06,17,09,7.40
2015,12,06,17,10,7.40
2015,12,06,17,11,7.30
2015,12,06,17,12,7.30
2015,12,06,17,13,7.30
2015,12,06,17,14,7.30
2015,12,06,17,15,7.30
2015,12,06,17,16,7.30
2015,12,06,17,17,7.30
2015,12,06,17,18,7.30
2015,12,06,17,19,7.30
2015,12,06,17,20,7.30
2015,12,06,17,21,7.30
2015,12,06,17,22,7.30
2015,12,06,17,23,7.30
2015,12,06,17,24,7.30
2015,12,06,17,25,7.30
2015,12,06,17,26,7.30
2015,12,06,17,27,7.30
2015,12,06,17,28,7.30
2015,12,06,17,29,7.30
2015,12,06,17,30,7.30
2015,12,06,17,31,7.30
2015,12,06,17,32,7.30
2015,12,06,17,33,7.30
2015,12,06,17,34,7.30
2015,12,06,17,35,7.40
2015,12,06,17,36,7.40
2015,12,06,17,37,7.40
2015,12,06,17,38,7.40
2015,12,06,17,39,7.30
2015,12,06,17,40,7.30
2015,12,06,17,41,7.30
2015,12,06,17,42,7.30
2015,12,06,17,43,7.30
2015,12,06,17,44,7.30
2015,12,06,17,45,7.30
2015,12,06,17,46,7.30
2015,12,06,17,47,7.30
2015,12,06,17,48,7.30
2015,12,06,17,49,7.30
2015,12,06,17,50,7.30
2015,12,06,17,51,7.30
2015,12,06,17,52,7.30
2015,12,06,17,53,7.30
2015,12,06,17,54,7.30
2015,12,06,17,55,7.30
2015,12,06,17,56,7.30
2015,12,06,17,57,7.30
2015,12,06,17,58,7.30
2015,12,06,17,59,7.30
2015,12,06,18,00,7.30
2015,12,06,18,01,7.30
2015,12,06,18,02,7.30
2015,12,06,18,03,7.30
2015,12,06,18,04,7.30
2015,12,06,18,05,7.30